CZ-6A DEB

Satellite information

Favourite Embed

Satellite Type and Status

DEBRISIN ORBIT

Key statistics

Satellite CZ-6A DEB at a glance.

Uptime

1128

Days in orbit

Revolutions

≈ 14.2

Per day

Orbit

SSO

Sun Synchronous Orbit

Inclination

98.7

Latest

Satellite identification and parameters

Extended collection of information and parameters for CZ-6A DEB.

Object identification

Identified? True

Debris? True

Object name: CZ-6A DEB

International designator: 2022-151ZF

Object number (NORAD): 55557

Object ID (CCSDS): 55557

Country: PEOPLES REPUBLIC OF CHINA (PRC)

Current information (Y/N): Y

RCS size: SMALL

Orbital parameters

Period: 101.662 minutes

Inclination: 98.7453 deg

SMA: 7215.515 km

Apoapsis: 883.189 km

Periapsis: 791.571 km

RAAN: 338.3229 deg

Eccentricy: 0.00634873

Argument of periapsis: 164.6825 deg

Mean anomaly: 195.629 deg

Mean motion: 14.16451632 rev/day

Mean motion (dot): 0.00001995 rev/day2

B* drag term: 0.0010048363 1/REarth

Two-line elements (TLE)

Creation date: Dec. 11, 2025, 7:14 p.m.

Reference frame: TEME

Reference center: EARTH

Epoch: Dec. 11, 2025, 9:58 a.m. UTC

TLE line 0: 0 CZ-6A DEB

TLE line 1: 1 55557U 22151ZF 25345.41536665 .00001995 00000-0 10048-2 0 9992

TLE line 2: 2 55557 98.7453 338.3229 0063487 164.6825 195.6290 14.16451632158318

Live tracking on map

Real-time ground track for satellite CZ-6A DEB.

In-orbit conjunctions

A list of the most updated potential collisions computed for object CZ-6A DEB.

Target Orbit TCA Probability of collision Miss distance Type
FENGYUN 1C DEB SSO 2025-11-27 22:34:25 0.0004254294 235.0 (m) DEBRIS
CZ-6A DEB LEO 2025-07-18 05:58:04 0.0002384975 238.0 (m) DEBRIS
SL-16 DEB LEO 2025-03-09 04:54:39 0.0001134529 153.0 (m) DEBRIS
COSMOS 2369 LEO 2024-11-18 15:12:22 0.0005530341 703.0 (m) PAYLOAD
THORAD AGENA D DEB SSO 2024-06-30 07:57:58 0.0002396207 243.0 (m) DEBRIS

Associated space launch

Chinese satellite reported for atmospheric/ocean/environmental/spatial parameter research purposes, details TBD.

CZ-6A DEB was lifted into orbit during the mission ‘Long March 6A | Yunhai 3’, on board a Long March 6A space rocket.

The launch took place on Nov. 11, 2022, 10:52 p.m. from Launch Complex 9A.

For more information about the launch, click the button.

Launch to space Long March 6A | Yunhai 3
Long March 6A | Yunhai 3

Agency: N/A

Status: Launch Successful

Launch date: Nov. 11, 2022, 10:52 p.m. UTC

Rocket: Long March 6A

Launch pad: Launch Complex 9A

Location: Taiyuan Satellite Launch Center, People's Republic of China

...

Latest news about this satellite

There are no fresh news available about this satellite. Check back as we update our databases every day.


Newsletter sign-up

Weekly statistics, charts and insights to help you stay on top of the space industry.